Time,TemperatureF,DewpointF,PressureIn,WindDirection,WindDirectionDegrees,WindSpeedMPH,WindSpeedGustMPH,Humidity,HourlyPrecipIn,Conditions,Clouds,dailyrainin,SolarRadiationWatts/m^2,SoftwareType,DateUTC
2013-01-23 00:12:00,25.0,7.0,-100.00,West,262,1.0,4.0,45,-99.99,,,0.00,0.000000,,2013-01-23 07:12:00,
2013-01-23 00:22:00,25.0,7.0,-100.00,West,262,1.0,4.0,45,-99.99,,,0.00,0.000000,,2013-01-23 07:22:00,
2013-01-23 01:22:00,20.0,6.0,-100.00,NW,305,3.0,4.0,53,-99.99,,,0.00,0.000000,,2013-01-23 08:22:00,
2013-01-23 02:12:00,21.0,4.0,-100.00,North,352,0.0,6.0,48,-99.99,,,0.00,0.000000,,2013-01-23 09:12:00,
2013-01-23 02:22:00,21.0,4.0,-100.00,North,352,0.0,6.0,48,-99.99,,,0.00,0.000000,,2013-01-23 09:22:00,
2013-01-23 02:32:00,21.0,4.0,-100.00,North,352,0.0,6.0,48,-99.99,,,0.00,0.000000,,2013-01-23 09:32:00,
2013-01-23 03:12:00,20.0,4.0,-100.00,ESE,107,1.0,4.0,48,-99.99,,,0.00,0.000000,,2013-01-23 10:12:00,
2013-01-23 03:22:00,20.0,4.0,-100.00,ESE,107,1.0,4.0,48,-99.99,,,0.00,0.000000,,2013-01-23 10:22:00,
2013-01-23 03:32:00,20.0,4.0,-100.00,ESE,107,1.0,4.0,48,-99.99,,,0.00,0.000000,,2013-01-23 10:32:00,
2013-01-23 04:12:00,16.0,2.0,-100.00,WNW,284,4.0,5.0,53,-99.99,,,0.00,0.000000,,2013-01-23 11:12:00,
2013-01-23 04:22:00,16.0,2.0,-100.00,WNW,284,4.0,5.0,53,-99.99,,,0.00,0.000000,,2013-01-23 11:22:00,
2013-01-23 04:33:00,16.0,2.0,-100.00,WNW,284,4.0,5.0,53,-99.99,,,0.00,0.000000,,2013-01-23 11:33:00,
2013-01-23 05:12:00,18.0,5.0,-100.00,WNW,295,0.0,5.0,55,-99.99,,,0.00,0.000000,,2013-01-23 12:12:00,
2013-01-23 05:22:00,18.0,5.0,-100.00,WNW,295,0.0,5.0,55,-99.99,,,0.00,0.000000,,2013-01-23 12:22:00,
2013-01-23 06:12:00,18.0,3.0,-100.00,NNE,32,2.0,5.0,51,-99.99,,,0.00,0.000000,,2013-01-23 13:12:00,
2013-01-23 06:23:00,18.0,3.0,-100.00,NNE,32,2.0,5.0,51,-99.99,,,0.00,0.000000,,2013-01-23 13:23:00,
2013-01-23 06:33:00,18.0,3.0,-100.00,NNE,32,2.0,5.0,51,-99.99,,,0.00,0.000000,,2013-01-23 13:33:00,
2013-01-23 07:12:00,17.0,4.0,-100.00,East,81,3.0,5.0,55,-99.99,,,0.00,0.000000,,2013-01-23 14:12:00,
2013-01-23 07:23:00,17.0,4.0,-100.00,East,81,3.0,5.0,55,-99.99,,,0.00,0.000000,,2013-01-23 14:23:00,
2013-01-23 07:33:00,17.0,4.0,-100.00,East,81,3.0,5.0,55,-99.99,,,0.00,0.000000,,2013-01-23 14:33:00,
2013-01-23 07:51:00,17.0,3.0,-100.00,ENE,73,3.0,7.0,53,-99.99,,,0.00,13.000000,,2013-01-23 14:51:00,
2013-01-23 08:12:00,17.0,3.0,-100.00,ENE,73,3.0,7.0,53,-99.99,,,0.00,13.000000,,2013-01-23 15:12:00,
2013-01-23 08:22:00,17.0,3.0,-100.00,ENE,73,3.0,7.0,53,-99.99,,,0.00,13.000000,,2013-01-23 15:22:00,
2013-01-23 08:43:00,17.0,3.0,-100.00,ENE,73,3.0,7.0,53,-99.99,,,0.00,13.000000,,2013-01-23 15:43:00,
2013-01-23 09:22:00,17.0,3.0,-100.00,West,277,3.0,8.0,53,0.00,,,0.00,138.000000,,2013-01-23 16:22:00,
2013-01-23 09:51:00,26.0,4.0,-100.00,NW,319,3.0,5.0,39,0.00,,,0.00,386.000000,,2013-01-23 16:51:00,
2013-01-23 10:22:00,26.0,4.0,-100.00,NW,319,3.0,5.0,39,0.00,,,0.00,386.000000,,2013-01-23 17:22:00,
2013-01-23 10:42:00,26.0,4.0,-100.00,NW,319,3.0,5.0,39,0.00,,,0.00,386.000000,,2013-01-23 17:42:00,
2013-01-23 11:12:00,29.0,7.0,-100.00,West,268,4.0,6.0,38,0.00,,,0.00,523.000000,,2013-01-23 18:12:00,
2013-01-23 11:23:00,29.0,7.0,-100.00,West,268,4.0,6.0,38,0.00,,,0.00,523.000000,,2013-01-23 18:23:00,
2013-01-23 11:51:00,34.0,8.0,-100.00,WNW,294,2.0,6.0,33,0.00,,,0.00,646.000000,,2013-01-23 18:51:00,
2013-01-23 12:13:00,34.0,8.0,-100.00,WNW,294,2.0,6.0,33,0.00,,,0.00,646.000000,,2013-01-23 19:13:00,
2013-01-23 12:22:00,34.0,8.0,-100.00,WNW,294,2.0,6.0,33,0.00,,,0.00,646.000000,,2013-01-23 19:22:00,
2013-01-23 12:42:00,34.0,8.0,-100.00,WNW,294,2.0,6.0,33,0.00,,,0.00,646.000000,,2013-01-23 19:42:00,
2013-01-23 12:51:00,33.0,9.0,-100.00,WSW,243,2.0,6.0,36,0.00,,,0.00,595.000000,,2013-01-23 19:51:00,
2013-01-23 13:23:00,33.0,9.0,-100.00,WSW,243,2.0,6.0,36,0.00,,,0.00,595.000000,,2013-01-23 20:23:00,
2013-01-23 13:33:00,33.0,9.0,-100.00,WSW,243,2.0,6.0,36,0.00,,,0.00,595.000000,,2013-01-23 20:33:00,
2013-01-23 13:42:00,33.0,9.0,-100.00,WSW,243,2.0,6.0,36,0.00,,,0.00,595.000000,,2013-01-23 20:42:00,
2013-01-23 13:51:00,32.0,9.0,-100.00,SSE,159,5.0,8.0,38,0.00,,,0.00,413.000000,,2013-01-23 20:51:00,
2013-01-23 14:12:00,32.0,9.0,-100.00,SSE,159,5.0,8.0,38,0.00,,,0.00,413.000000,,2013-01-23 21:12:00,
2013-01-23 14:22:00,32.0,9.0,-100.00,SSE,159,5.0,8.0,38,0.00,,,0.00,413.000000,,2013-01-23 21:22:00,
2013-01-23 14:33:00,32.0,9.0,-100.00,SSE,159,5.0,8.0,38,0.00,,,0.00,413.000000,,2013-01-23 21:33:00,
2013-01-23 14:42:00,32.0,9.0,-100.00,SSE,159,5.0,8.0,38,0.00,,,0.00,413.000000,,2013-01-23 21:42:00,
2013-01-23 14:51:00,34.0,6.0,-100.00,SSE,161,4.0,7.0,30,0.00,,,0.00,374.000000,,2013-01-23 21:51:00,
2013-01-23 15:22:00,34.0,6.0,-100.00,SSE,161,4.0,7.0,30,0.00,,,0.00,374.000000,,2013-01-23 22:22:00,
2013-01-23 15:33:00,34.0,6.0,-100.00,SSE,161,4.0,7.0,30,0.00,,,0.00,374.000000,,2013-01-23 22:33:00,
2013-01-23 15:42:00,34.0,6.0,-100.00,SSE,161,4.0,7.0,30,0.00,,,0.00,374.000000,,2013-01-23 22:42:00,
2013-01-23 15:51:00,35.0,7.0,-100.00,NW,324,2.0,5.0,30,0.00,,,0.00,234.000000,,2013-01-23 22:51:00,
2013-01-23 16:12:00,35.0,7.0,-100.00,NW,324,2.0,5.0,30,0.00,,,0.00,234.000000,,2013-01-23 23:12:00,
2013-01-23 16:22:00,35.0,7.0,-100.00,NW,324,2.0,5.0,30,0.00,,,0.00,234.000000,,2013-01-23 23:22:00,
2013-01-23 16:33:00,35.0,7.0,-100.00,NW,324,2.0,5.0,30,0.00,,,0.00,234.000000,,2013-01-23 23:33:00,
2013-01-23 16:42:00,35.0,7.0,-100.00,NW,324,2.0,5.0,30,0.00,,,0.00,234.000000,,2013-01-23 23:42:00,
2013-01-23 16:51:00,31.0,6.0,-100.00,WNW,295,4.0,5.0,34,0.00,,,0.00,85.000000,,2013-01-23 23:51:00,
2013-01-23 17:12:00,31.0,6.0,-100.00,WNW,295,4.0,5.0,34,0.00,,,0.00,85.000000,,2013-01-24 00:12:00,
2013-01-23 17:22:00,31.0,6.0,-100.00,WNW,295,4.0,5.0,34,0.00,,,0.00,85.000000,,2013-01-24 00:22:00,
2013-01-23 17:32:00,31.0,6.0,-100.00,WNW,295,4.0,5.0,34,0.00,,,0.00,85.000000,,2013-01-24 00:32:00,
2013-01-23 17:42:00,31.0,6.0,-100.00,WNW,295,4.0,5.0,34,0.00,,,0.00,85.000000,,2013-01-24 00:42:00,
2013-01-23 17:51:00,29.0,8.0,-100.00,SSE,159,3.0,7.0,40,0.00,,,0.00,8.000000,,2013-01-24 00:51:00,
2013-01-23 18:22:00,29.0,8.0,-100.00,SSE,159,3.0,7.0,40,0.00,,,0.00,8.000000,,2013-01-24 01:22:00,
2013-01-23 18:33:00,29.0,8.0,-100.00,SSE,159,3.0,7.0,40,0.00,,,0.00,8.000000,,2013-01-24 01:33:00,
2013-01-23 18:42:00,29.0,8.0,-100.00,SSE,159,3.0,7.0,40,0.00,,,0.00,8.000000,,2013-01-24 01:42:00,
2013-01-23 18:51:00,31.0,5.0,-100.00,South,179,3.0,7.0,33,0.00,,,0.00,0.000000,,2013-01-24 01:51:00,
2013-01-23 19:12:00,31.0,5.0,-100.00,South,179,3.0,7.0,33,0.00,,,0.00,0.000000,,2013-01-24 02:12:00,
2013-01-23 19:22:00,31.0,5.0,-100.00,South,179,3.0,7.0,33,0.00,,,0.00,0.000000,,2013-01-24 02:22:00,
2013-01-23 19:33:00,31.0,5.0,-100.00,South,179,3.0,7.0,33,0.00,,,0.00,0.000000,,2013-01-24 02:33:00,
2013-01-23 19:42:00,31.0,5.0,-100.00,South,179,3.0,7.0,33,0.00,,,0.00,0.000000,,2013-01-24 02:42:00,
2013-01-23 19:51:00,27.0,6.0,-100.00,WSW,256,4.0,6.0,41,0.00,,,0.00,0.000000,,2013-01-24 02:51:00,
2013-01-23 20:12:00,27.0,6.0,-100.00,WSW,256,4.0,6.0,41,0.00,,,0.00,0.000000,,2013-01-24 03:12:00,
2013-01-23 20:22:00,27.0,6.0,-100.00,WSW,256,4.0,6.0,41,0.00,,,0.00,0.000000,,2013-01-24 03:22:00,
2013-01-23 20:32:00,27.0,6.0,-100.00,WSW,256,4.0,6.0,41,0.00,,,0.00,0.000000,,2013-01-24 03:32:00,
2013-01-23 20:42:00,27.0,6.0,-100.00,WSW,256,4.0,6.0,41,0.00,,,0.00,0.000000,,2013-01-24 03:42:00,
2013-01-23 21:22:00,29.0,7.0,-100.00,South,181,4.0,6.0,38,0.00,,,0.00,0.000000,,2013-01-24 04:22:00,
2013-01-23 21:51:00,26.0,6.0,-100.00,East,79,1.0,6.0,41,-99.99,,,-99.99,0.000000,,2013-01-24 04:51:00,
2013-01-23 22:22:00,26.0,6.0,-100.00,East,79,1.0,6.0,41,-99.99,,,-99.99,0.000000,,2013-01-24 05:22:00,
2013-01-23 22:32:00,26.0,6.0,-100.00,East,79,1.0,6.0,41,-99.99,,,-99.99,0.000000,,2013-01-24 05:32:00,
2013-01-23 22:42:00,26.0,6.0,-100.00,East,79,1.0,6.0,41,-99.99,,,-99.99,0.000000,,2013-01-24 05:42:00,
2013-01-23 23:12:00,26.0,6.0,-100.00,WSW,246,3.0,5.0,42,-99.99,,,0.00,0.000000,,2013-01-24 06:12:00,
2013-01-23 23:22:00,26.0,6.0,-100.00,WSW,246,3.0,5.0,42,-99.99,,,0.00,0.000000,,2013-01-24 06:22:00,
2013-01-23 23:51:00,25.0,7.0,-100.00,SSE,167,2.0,6.0,46,0.00,,,0.00,0.000000,,2013-01-24 06:51:00,